When you browse on this site, cookies collect data to enhance your experience and personalize the content and advertising you see.
Visit our Privacy Policy to learn more. By continuing to use the site, you agree to this use of cookies and data.
  • în România
  • Lista ţărilor
  • Pe 7 zile
  • Temperatura apei
  • Meteo pe hartă
  • Widget-uri
  • user-avatar
    Intrare

    Meteo pe oră la Coasta de Aur

    Astăzi, 19 Octombrie, Sâmbătă

    Timp Temperatura Precipitaţii Vânt Presiune Umiditate
    00:00 +18°C° 0 mm 1 m/s 759 mmHg 93%
    01:00 +16°C° 0 mm 1 m/s 759 mmHg 94%
    02:00 +16°C° 0 mm 1 m/s 759 mmHg 93%
    03:00 +16°C° 0 mm 1 m/s 759 mmHg 93%
    04:00 +18°C° 0 mm 1 m/s 758 mmHg 91%
    05:00 +19°C° 0 mm 1 m/s 759 mmHg 87%
    06:00 +20°C° 0 mm 1 m/s 759 mmHg 82%
    07:00 +22°C° 0 mm 1 m/s 759 mmHg 77%
    08:00 +24°C° 0.1 mm 1 m/s 759 mmHg 69%
    09:00 +26°C° 0.1 mm 1 m/s 759 mmHg 62%
    10:00 +28°C° 0.1 mm 1 m/s 759 mmHg 55%
    11:00 +29°C° 0.1 mm 2 m/s 758 mmHg 54%
    12:00 +29°C° 0.1 mm 2 m/s 757 mmHg 54%
    13:00 +29°C° 0.1 mm 3 m/s 756 mmHg 54%
    14:00 +29°C° 0.1 mm 4 m/s 756 mmHg 56%
    15:00 +28°C° 0.1 mm 4 m/s 755 mmHg 59%
    16:00 +28°C° 0.1 mm 4 m/s 755 mmHg 62%
    17:00 +25°C° 0.3 mm 4 m/s 755 mmHg 73%
    18:00 +22°C° 0.3 mm 3 m/s 756 mmHg 84%
    19:00 +20°C° 0.3 mm 3 m/s 756 mmHg 96%
    20:00 +19°C° 0.1 mm 3 m/s 756 mmHg 92%
    21:00 +18°C° 0.1 mm 3 m/s 757 mmHg 88%
    22:00 +18°C° 0.1 mm 2 m/s 757 mmHg 84%
    23:00 +17°C° 0 mm 2 m/s 757 mmHg 76%

    Mâine, 20 Octombrie, Duminică

    Timp Temperatura Precipitaţii Vânt Presiune Umiditate
    00:00 +16°C° 0 mm 2 m/s 756 mmHg 68%
    01:00 +15°C° 0 mm 2 m/s 756 mmHg 60%
    02:00 +15°C° 0 mm 2 m/s 756 mmHg 56%
    03:00 +15°C° 0 mm 2 m/s 757 mmHg 52%
    04:00 +15°C° 0 mm 1 m/s 757 mmHg 48%
    05:00 +17°C° 0 mm 2 m/s 757 mmHg 49%
    06:00 +18°C° 0 mm 3 m/s 758 mmHg 51%
    07:00 +19°C° 0 mm 4 m/s 758 mmHg 52%
    08:00 +22°C° 0 mm 4 m/s 759 mmHg 48%
    09:00 +25°C° 0 mm 5 m/s 759 mmHg 44%
    10:00 +27°C° 0 mm 5 m/s 759 mmHg 40%
    11:00 +27°C° 0 mm 5 m/s 758 mmHg 41%
    12:00 +28°C° 0 mm 6 m/s 758 mmHg 41%
    13:00 +28°C° 0 mm 7 m/s 758 mmHg 42%
    14:00 +26°C° 0 mm 7 m/s 758 mmHg 48%
    15:00 +24°C° 0 mm 8 m/s 758 mmHg 53%
    16:00 +22°C° 0 mm 8 m/s 758 mmHg 59%
    17:00 +21°C° 0 mm 7 m/s 758 mmHg 64%
    18:00 +19°C° 0 mm 6 m/s 759 mmHg 68%
    19:00 +17°C° 0 mm 6 m/s 760 mmHg 73%
    20:00 +16°C° 0 mm 5 m/s 761 mmHg 77%
    21:00 +16°C° 0 mm 5 m/s 761 mmHg 81%
    22:00 +15°C° 0 mm 5 m/s 762 mmHg 85%
    23:00 +15°C° 0 mm 5 m/s 762 mmHg 87%

    Poimâine, 21 Octombrie, Luni

    Timp Temperatura Precipitaţii Vânt Presiune Umiditate
    00:00 +15°C° 0 mm 5 m/s 762 mmHg 90%
    01:00 +14°C° 0 mm 5 m/s 761 mmHg 92%
    02:00 +14°C° 0 mm 5 m/s 762 mmHg 92%
    03:00 +14°C° 0 mm 5 m/s 762 mmHg 91%
    04:00 +14°C° 0 mm 5 m/s 762 mmHg 90%
    05:00 +15°C° 0 mm 5 m/s 762 mmHg 82%
    06:00 +17°C° 0 mm 6 m/s 763 mmHg 73%
    07:00 +19°C° 0 mm 6 m/s 763 mmHg 65%
    08:00 +20°C° 0 mm 6 m/s 764 mmHg 58%
    09:00 +22°C° 0 mm 6 m/s 764 mmHg 51%
    10:00 +23°C° 0 mm 6 m/s 764 mmHg 44%
    11:00 +23°C° 0 mm 7 m/s 763 mmHg 44%
    12:00 +23°C° 0 mm 7 m/s 763 mmHg 43%
    13:00 +24°C° 0 mm 7 m/s 763 mmHg 43%
    14:00 +23°C° 0 mm 7 m/s 763 mmHg 45%
    15:00 +23°C° 0 mm 7 m/s 763 mmHg 47%
    16:00 +22°C° 0 mm 7 m/s 763 mmHg 50%
    17:00 +20°C° 0 mm 6 m/s 763 mmHg 57%
    18:00 +17°C° 0 mm 6 m/s 764 mmHg 65%
    19:00 +16°C° 0 mm 5 m/s 764 mmHg 73%
    20:00 +15°C° 0 mm 5 m/s 764 mmHg 77%
    21:00 +15°C° 0 mm 5 m/s 765 mmHg 80%
    22:00 +14°C° 0 mm 4 m/s 765 mmHg 83%
    23:00 +14°C° 0.1 mm 4 m/s 764 mmHg 85%

    22 Octombrie, Marţi

    Timp Temperatura Precipitaţii Vânt Presiune Umiditate
    00:00 +14°C° 0.1 mm 4 m/s 764 mmHg 86%
    01:00 +14°C° 0.1 mm 4 m/s 764 mmHg 88%
    02:00 +13°C° 0.1 mm 4 m/s 763 mmHg 90%
    03:00 +13°C° 0.1 mm 4 m/s 763 mmHg 92%
    04:00 +13°C° 0.1 mm 3 m/s 763 mmHg 94%
    05:00 +14°C° 0.1 mm 4 m/s 764 mmHg 88%
    06:00 +17°C° 0.1 mm 4 m/s 764 mmHg 82%
    07:00 +18°C° 0.1 mm 4 m/s 764 mmHg 75%
    08:00 +20°C° 0.1 mm 4 m/s 764 mmHg 67%
    09:00 +22°C° 0.1 mm 5 m/s 764 mmHg 58%
    10:00 +25°C° 0.1 mm 5 m/s 764 mmHg 50%
    11:00 +25°C° 0 mm 5 m/s 764 mmHg 50%
    12:00 +24°C° 0 mm 6 m/s 764 mmHg 51%
    13:00 +24°C° 0 mm 6 m/s 763 mmHg 51%
    14:00 +23°C° 0 mm 6 m/s 763 mmHg 52%
    15:00 +23°C° 0 mm 6 m/s 763 mmHg 54%
    16:00 +22°C° 0 mm 6 m/s 762 mmHg 56%
    17:00 +21°C° 0 mm 5 m/s 763 mmHg 64%
    18:00 +19°C° 0 mm 5 m/s 763 mmHg 72%
    19:00 +18°C° 0 mm 4 m/s 764 mmHg 80%
    20:00 +17°C° 0 mm 4 m/s 764 mmHg 83%
    21:00 +15°C° 0 mm 4 m/s 764 mmHg 86%
    22:00 +16°C° 0 mm 3 m/s 764 mmHg 89%
    23:00 +16°C° 0 mm 3 m/s 764 mmHg 88%

    23 Octombrie, Miercuri

    Timp Temperatura Precipitaţii Vânt Presiune Umiditate
    00:00 +16°C° 0 mm 3 m/s 764 mmHg 86%
    01:00 +16°C° 0 mm 3 m/s 764 mmHg 85%
    02:00 +16°C° 0 mm 3 m/s 763 mmHg 84%
    03:00 +16°C° 0 mm 3 m/s 763 mmHg 84%
    04:00 +16°C° 0 mm 3 m/s 763 mmHg 83%
    05:00 +17°C° 0 mm 3 m/s 763 mmHg 78%
    06:00 +18°C° 0 mm 3 m/s 764 mmHg 72%
    07:00 +19°C° 0 mm 3 m/s 764 mmHg 67%
    08:00 +21°C° 0 mm 3 m/s 764 mmHg 61%
    09:00 +22°C° 0 mm 4 m/s 764 mmHg 55%
    10:00 +23°C° 0 mm 4 m/s 764 mmHg 50%
    11:00 +25°C° 0 mm 4 m/s 763 mmHg 47%
    12:00 +26°C° 0 mm 4 m/s 763 mmHg 45%
    13:00 +26°C° 0 mm 5 m/s 763 mmHg 42%
    14:00 +25°C° 0 mm 5 m/s 762 mmHg 45%
    15:00 +25°C° 0 mm 5 m/s 762 mmHg 48%
    16:00 +23°C° 0 mm 5 m/s 761 mmHg 52%
    17:00 +21°C° 0 mm 4 m/s 762 mmHg 60%
    18:00 +19°C° 0 mm 4 m/s 762 mmHg 68%
    19:00 +17°C° 0 mm 3 m/s 763 mmHg 77%
    20:00 +16°C° 0 mm 3 m/s 763 mmHg 78%
    21:00 +16°C° 0 mm 2 m/s 763 mmHg 80%
    22:00 +15°C° 0 mm 2 m/s 763 mmHg 82%
    23:00 +15°C° 0 mm 2 m/s 763 mmHg 83%

    24 Octombrie, Joi

    Timp Temperatura Precipitaţii Vânt Presiune Umiditate
    00:00 +14°C° 0 mm 1 m/s 763 mmHg 84%
    01:00 +14°C° 0 mm 1 m/s 762 mmHg 86%
    02:00 +14°C° 0 mm 1 m/s 762 mmHg 85%
    03:00 +14°C° 0 mm 1 m/s 762 mmHg 85%
    04:00 +14°C° 0 mm 1 m/s 762 mmHg 85%
    05:00 +16°C° 0 mm 1 m/s 762 mmHg 77%
    06:00 +19°C° 0 mm 1 m/s 762 mmHg 68%
    07:00 +21°C° 0 mm 1 m/s 762 mmHg 60%
    08:00 +24°C° 0 mm 1 m/s 762 mmHg 53%
    09:00 +26°C° 0 mm 1 m/s 762 mmHg 45%
    10:00 +28°C° 0 mm 1 m/s 762 mmHg 38%
    11:00 +28°C° 0 mm 2 m/s 761 mmHg 40%
    12:00 +27°C° 0 mm 3 m/s 761 mmHg 43%
    13:00 +27°C° 0 mm 4 m/s 760 mmHg 45%
    14:00 +26°C° 0 mm 4 m/s 760 mmHg 50%
    15:00 +25°C° 0 mm 4 m/s 759 mmHg 55%
    16:00 +23°C° 0 mm 4 m/s 759 mmHg 61%
    17:00 +21°C° 0 mm 3 m/s 760 mmHg 70%
    18:00 +19°C° 0 mm 3 m/s 760 mmHg 79%
    19:00 +17°C° 0 mm 2 m/s 760 mmHg 88%
    20:00 +17°C° 0 mm 2 m/s 761 mmHg 90%
    21:00 +16°C° 0 mm 2 m/s 761 mmHg 92%
    22:00 +15°C° 0 mm 1 m/s 761 mmHg 93%
    23:00 +15°C° 0 mm 1 m/s 761 mmHg 93%
    Arată mai mult